User: anonymous   Login
Location: Unspecified
(0.0000°N, 0.0000°E)
Time: 13:36:55
(UTC+01:00)
Language:

IUS-9 SRM-1 - Orbit

View from above orbital plane
View from above orbital plane
View from above satellite
View from above satellite

Ground track
Ground track

The orbit data is extracted from the following two-line orbital elements,

1 19884U 89021C   17055.07437079  .00006183  00000-0  55159-3 0  9991
2 19884  26.4240  91.3940 5969406 158.8982 243.0305  4.12436083329301
Epoch (UTC): 24 February 2017 01:47:05
Eccentricity: 0.5969406
inclination: 26.4240°
perigee height: 242 km
apogee height: 19851 km
right ascension of ascending node: 91.3940°
argument of perigee: 158.8982°
revolutions per day: 4.12436083
mean anomaly at epoch: 243.0305°
orbit number at epoch: 32930

The dashed part of the orbit path shows where the satellite is in the earth's shadow,  

DLR